Kosmos-1766

operational
NORAD ID: 16881 Int'l Des: 1986-055 Owner: GMS/YUZH Country: SU
LEOCIRCULARPOLAR

About Kosmos-1766

Description loading...

Live Position

Loading 3D Globe...

Upcoming Passes

Altitude History

Altitude vs Time

uPlot chart will show altitude changes over time

Two-Line Element Set

1 16881U 86055A 26061.17505559 .00026621 00000-0 46973-3 0 9999
2 16881 82.4883 116.6456 0007262 191.4964 168.6123 15.50209802142443
Epoch: Mar 2, 2026 • Age: 39 hours

Current Status

Altitude 437.2 km
Velocity 7.65 km/s
Sub-Earth Point -62.57°S, 81.59°W
Launch Date Jul 28, 1986
Age 39.5 years
Type other

Technical Details

Classification Payload
Mass 1931.00 kg
Dry Mass 1931.00 kg
Total Mass 1931.00 kg
Length 5.00 m
Diameter 2.40 m
Span 21.50 m
Shape Cyl + 2 Pan + Ant
Manufacturer YUZH
Bus Type Okean
Phase Status In Orbit
Owner/State GMS/YUZH/SU

Large Constellations

Loading constellations...